#timestamp,LO_Frequency,Hit 
1601402415.3,286047000.5,N
1601402435.1,286046998.7,N
1601402455.9,286046998.5,N
1601402475.7,286047000.9,N
1601402495.5,286047000.5,N
1601402515.4,286047000.7,N
1601402535.2,286047000.6,N
1601402555.0,286047000.5,N
1601402555.9,286047000.5,N
1601402575.8,286046998.1,N
1601402595.6,286046999.7,N
1601402615.4,286047000.5,N
1601402635.3,286047000.5,N
1601402655.1,286047000.2,N
1601402675.8,286047001.2,N
1601402695.7,286047000.6,N
1601402715.5,286047000.0,N
1601402735.3,286046998.2,N
1601402755.2,286046998.2,N
1601402775.9,286046998.6,N
1601402795.7,286047001.1,N
1601402815.6,286047001.2,N
1601402835.4,286047000.5,N
1601402855.2,286047000.8,N
1601402875.1,286047000.6,N
1601402876.0,286047000.6,N
1601402895.8,286047001.0,N
1601402915.6,286047001.0,N
1601402935.5,286047001.0,N
1601402955.3,286047000.4,N
1601402975.1,286046999.9,N
1601402995.9,286046998.9,N
1601403015.7,286046998.3,N
1601403035.5,286047001.1,N
1601403055.3,286047000.3,N
1601403075.2,286046998.4,N
1601403095.0,286046998.1,N
1601403095.9,286046998.1,N
1601403115.7,286046998.4,N
1601403135.6,286046998.3,N
1601403155.4,286046998.7,N
1601403175.2,286046998.1,N
1601403195.1,286046998.7,N
1601403196.0,286046998.7,N
1601403215.8,286047000.7,N
1601403235.6,286046998.3,N
1601403255.5,286046996.6,N
1601403275.3,286046996.5,N
1601403295.1,286046998.5,N
1601403315.9,286046998.9,N
1601403335.7,286046998.4,N
1601403355.5,286046996.7,N
1601403375.4,286046996.5,N
1601403395.2,286046996.7,N
1601403415.0,286046996.7,N
1601403415.9,286046996.7,N
1601403435.8,286046999.5,N
1601403455.6,286046997.0,N
1601403475.4,286046996.5,N
1601403495.3,286046997.3,N
1601403515.1,286046996.7,N
1601403535.8,286046995.0,P
1601403555.7,286047001.2,N
1601403575.5,286046999.0,N
1601403595.3,286046999.0,N
1601403615.2,286046999.0,N
1601403635.9,286046999.5,N
1601403655.7,286046996.6,N
1601403675.6,286046999.6,N
1601403695.4,286046997.3,N
1601403715.2,286046997.2,N
1601403735.1,286046996.6,N
1601403736.0,286046996.6,N
1601403755.8,286046995.3,N
1601403775.6,286046999.6,N
1601403795.5,286046997.9,N
1601403815.3,286046994.9,P
1601403835.1,286046998.4,N
1601403855.9,286046998.6,N
1601403875.7,286046998.5,N
1601403895.5,286046998.7,N
1601403915.4,286046999.0,N
1601403935.2,286046996.9,N
1601403955.0,286046998.4,N
1601403955.9,286046998.4,N
1601403975.8,286046999.2,N
1601403995.6,286046998.2,N
1601404015.4,286046998.9,N
1601404035.3,286046999.3,N
1601404055.1,286046996.6,P
1601404075.8,286047000.7,N
1601404095.7,286046999.9,N
1601404115.5,286047000.4,N
1601404135.3,286047000.6,N
1601404155.2,286047000.4,N
1601404175.0,286047000.5,N
1601404175.9,286047000.5,N
1601404195.7,286047000.0,N
1601404215.6,286047000.6,N
1601404235.4,286047001.2,N
1601404255.2,286047000.1,N
1601404275.1,286047000.1,N
1601404276.0,286047000.1,N
1601404295.8,286047000.7,N
1601404315.6,286047000.6,N
1601404335.5,286047002.5,N
1601404355.3,286046999.8,N
1601404375.1,286047002.8,N
1601404395.9,286047000.1,N
1601404415.7,286047002.7,N
1601404435.5,286046999.7,N
1601404455.4,286047002.7,N
1601404475.2,286047001.8,N
1601404495.0,286047000.1,N
1601404495.9,286047000.1,N
1601404515.8,286047002.6,N
1601404535.6,286047000.1,N
1601404555.4,286047002.2,N
1601404575.3,286047000.2,N
1601404595.1,286047002.3,N
1601404596.0,286047002.3,N
1601404615.8,286047000.2,N
1601404635.7,286047002.1,N
1601404655.5,286047002.4,N
1601404675.3,286047001.4,N
1601404695.2,286047001.6,N
1601404715.9,286047002.2,N
1601404735.7,286047002.2,N
1601404755.6,286047002.1,N
1601404775.4,286047002.3,N
1601404795.2,286047002.5,N
1601404815.0,286047002.7,N
1601404816.0,286047002.7,N
1601404835.8,286047002.3,N
1601404855.6,286047002.2,N
1601404875.4,286047001.6,N
1601404895.3,286047004.3,P
1601404915.1,286047002.8,N
1601404935.9,286047002.5,N
1601404955.7,286046999.9,N
1601404975.5,286046999.8,N
1601404995.4,286047002.5,N
1601405015.2,286047000.6,N
1601405035.0,286046999.8,N
1601405035.9,286046999.8,N
1601405055.8,286046999.9,N
1601405075.6,286047002.5,N
1601405095.4,286047002.6,N
1601405115.2,286047002.3,N
1601405135.1,286047002.5,N
1601405136.0,286047002.5,N
1601405155.8,286047002.1,N
1601405175.6,286047000.5,N
1601405195.5,286047002.1,N
1601405215.3,286047002.5,N
1601405235.1,286047002.7,N
1601405255.9,286047002.6,N
1601405275.7,286046999.8,N
1601405295.5,286047000.5,N
1601405315.4,286047000.6,N
1601405335.2,286047000.6,N
1601405355.0,286046999.9,N
1601405355.9,286046999.9,N
1601405375.8,286047000.0,N
1601405395.6,286047001.9,N
1601405415.4,286047002.3,N
1601405435.3,286046999.9,N
1601405455.1,286047000.5,N
1601405456.0,286047000.5,N
1601405475.8,286047000.2,N
1601405495.7,286047000.9,N
1601405515.5,286047002.6,N
1601405535.3,286047002.6,N
1601405555.2,286047001.9,N
1601405575.9,286047000.2,N
1601405595.7,286047000.2,N
1601405615.6,286047000.2,N
1601405635.4,286047000.2,N
1601405655.2,286047000.0,N
1601405675.0,286047000.2,N
1601405676.0,286047000.2,N
1601405695.8,286047000.4,N
1601405715.6,286047000.0,N
1601405735.4,286047002.7,N
1601405755.3,286047002.4,N
1601405775.1,286047002.6,N
1601405795.8,286047002.6,N
1601405815.7,286047001.5,N
1601405835.5,286047002.3,N
1601405855.3,286047002.2,N
1601405875.2,286047002.8,N
1601405895.0,286047002.6,N
1601405895.9,286047002.6,N
1601405915.8,286047004.4,P
1601405935.6,286047001.1,N
1601405955.4,286047000.4,N
1601405975.2,286047001.2,N
1601405995.1,286047000.3,N
1601405996.0,286047000.3,N
